• Join FlightAware (Why Join?)
  • Login
  • US Flag 
11:33AM EST


 

Airport Tracker/Info


-or-


 

Live Flight TrackerFlight Track Log ✈ JLG695 ✈ 13-Jul-2012 ✈ KVNY - KLAS

Flight Track Log - Related Links

Times and Time Zones

All times are in EDT time to prevent confusion due to time zone crossing. See the JLG695 flight status page for this flight to view local times or setup timezone preferences in your user account.

Time Position Orientation Groundspeed Altitude Reporting Facility
EDT Latitude Longitude Course Direction KTS MPH feet Rate Location/Type
03:19PM 34.1833 -118.4833 301° West 132 152 1,400  Level Southern California TRACON
03:20PM 34.2000 -118.5167 360° North 139 160 1,700 100 Climbing Southern California TRACON
03:21PM 34.2333 -118.5167 90° East 119 137 1,600 -200 Descending Southern California TRACON
03:22PM 34.2333 -118.5000 165° South 124 143 1,300 29 Descending Southern California TRACON
03:35PM 34.1833 -118.4833 29° Northeast 136 157 2,000 220 Climbing Southern California TRACON
03:37PM 34.2281 -118.4528 21° North 133 153 4,600 1,322 Climbing Los Angeles Center
03:38PM 34.2578 -118.4386 42° Northeast 137 158 5,900 1,200 Climbing Los Angeles Center
03:39PM 34.2897 -118.4042 40° Northeast 137 158 7,000 1,100 Climbing Los Angeles Center
03:40PM 34.3258 -118.3675 40° Northeast 153 176 8,100 900 Climbing Los Angeles Center
03:41PM 34.3597 -118.3331 42° Northeast 158 182 8,800 1,100 Climbing Los Angeles Center
03:42PM 34.3939 -118.2964 46° Northeast 158 182 10,300 1,100 Climbing Los Angeles Center
03:43PM 34.4217 -118.2617 46° Northeast 152 175 11,000 800 Climbing Los Angeles Center
03:44PM 34.4536 -118.2222 36° Northeast 147 169 11,900 800 Climbing Los Angeles Center
03:45PM 34.4875 -118.1928 77° East 147 169 12,600 900 Climbing Los Angeles Center
03:46PM 34.4967 -118.1428 105° East 146 168 13,700 700 Climbing Los Angeles Center
03:47PM 34.4831 -118.0819 92° East 146 168 14,000 700 Climbing Los Angeles Center
03:48PM 34.4817 -118.0339 94° East 153 176 15,100 800 Climbing Los Angeles Center
03:49PM 34.4783 -117.9783 89° East 158 182 15,600 550 Climbing Los Angeles Center
03:50PM 34.4792 -117.9206 94° East 163 188 16,200 550 Climbing Los Angeles Center
03:51PM 34.4758 -117.8650 76° East 163 188 16,700 500 Climbing Los Angeles Center
03:52PM 34.4872 -117.8097 65° Northeast 158 182 17,200 500 Climbing Los Angeles Center
03:53PM 34.5067 -117.7597 72° East 158 182 17,700 450 Climbing Los Angeles Center
03:54PM 34.5197 -117.7094 66° East 168 193 18,100 450 Climbing Los Angeles Center
03:55PM 34.5392 -117.6569 62° Northeast 168 193 18,600 450 Climbing Los Angeles Center
03:56PM 34.5608 -117.6069 66° East 168 193 19,000 200 Climbing Los Angeles Center
03:57PM 34.5822 -117.5494 61° Northeast 174 200 19,000  Level Los Angeles Center
03:58PM 34.6100 -117.4892 65° Northeast 179 206 19,000  Level Los Angeles Center
03:59PM 34.6336 -117.4289 66° East 191 220 19,000  Level Los Angeles Center
04:00PM 34.6572 -117.3636 67° East 196 226 19,000  Level Los Angeles Center
04:01PM 34.6789 -117.3008 66° East 196 226 19,000  Level Los Angeles Center
04:02PM 34.7025 -117.2356 65° Northeast 196 226 19,000  Level Los Angeles Center
04:03PM 34.7258 -117.1753 62° Northeast 196 226 19,000  Level Los Angeles Center
04:04PM 34.7536 -117.1122 59° Northeast 196 226 19,000  Level Los Angeles Center
04:05PM 34.7833 -117.0519 67° East 196 226 19,000  Level Los Angeles Center
04:06PM 34.8067 -116.9864 71° East 196 226 19,000  Level Los Angeles Center
04:07PM 34.8258 -116.9183 67° East 202 232 19,000  Level Los Angeles Center
04:08PM 34.8494 -116.8503 65° Northeast 208 239 19,000  Level Los Angeles Center
04:09PM 34.8747 -116.7847 63° Northeast 208 239 19,000  Level Los Angeles Center
04:10PM 34.9022 -116.7189 66° East 215 247 19,000  Level Los Angeles Center
04:11PM 34.9275 -116.6508 65° Northeast 215 247 19,000  Level Los Angeles Center
04:12PM 34.9528 -116.5850 67° East 215 247 19,000  Level Los Angeles Center
04:13PM 34.9761 -116.5167 62° Northeast 215 247 19,000  Level Los Angeles Center
04:14PM 35.0056 -116.4483 59° Northeast 215 247 19,000  Level Los Angeles Center
04:15PM 35.0369 -116.3850 58° Northeast 220 253 19,000  Level Los Angeles Center
04:16PM 35.0706 -116.3192 62° Northeast 220 253 19,000  Level Los Angeles Center
04:17PM 35.0997 -116.2533 66° East 220 253 19,000  Level Los Angeles Center
04:18PM 35.1250 -116.1847 64° Northeast 220 253 19,000 -550 Level Los Angeles Center
04:19PM 35.1542 -116.1111 60° Northeast 220 253 17,900 -900 Descending Los Angeles Center
04:20PM 35.1917 -116.0322 55° Northeast 241 277 17,200 -750 Descending Los Angeles Center
04:21PM 35.2333 -115.9586 63° Northeast 255 293 16,400 -700 Descending Los Angeles Center
04:23PM 35.2997 -115.7981 63° Northeast 255 293 15,100 -867 Descending Los Angeles Center
04:24PM 35.3331 -115.7189 53° Northeast 249 287 13,800 -900 Descending Los Angeles Center
04:25PM 35.3722 -115.6550 52° Northeast 249 287 13,300 -750 Descending Los Angeles Center
04:26PM 35.4097 -115.5964 62° Northeast 229 264 12,300 -450 Descending Los Angeles Center
04:27PM 35.4386 -115.5297 58° Northeast 219 252 12,400 -424 Climbing Los Angeles Center
04:27PM 35.4531 -115.5017 43° Northeast 230 265 11,700 -1,400 Descending Los Angeles Center
04:28PM 35.4822 -115.4683 43° Northeast 219 252 11,000 -1,574 Descending Los Angeles Center
04:28PM 35.5050 -115.4425 51° Northeast 244 281 10,100 -1,000 Descending Los Angeles Center
04:29PM 35.5256 -115.4117 48° Northeast 224 258 10,000 -100 Descending Los Angeles Center
04:29PM 35.5464 -115.3836 38° Northeast 220 253 10,000 100 Level Los Angeles Center
04:30PM 35.5711 -115.3603 31° Northeast 224 258 10,100 82 Climbing Los Angeles Center
04:30PM 35.6128 -115.3292 40° Northeast 237 273 10,100  Level Los Angeles Center
04:31PM 35.6253 -115.3164 39° Northeast 219 252 10,100  Level Los Angeles Center
04:31PM 35.6644 -115.2778 55° Northeast 242 278 10,100 -200 Level Los Angeles Center
04:32PM 35.6747 -115.2597 43° Northeast 229 264 9,900 -1,091 Descending Los Angeles Center
04:32PM 35.7081 -115.2208 35° Northeast 253 291 9,100 -1,200 Descending Los Angeles Center
04:33PM 35.7286 -115.2028 23° Northeast 234 269 8,700 -1,522 Descending Los Angeles Center
04:33PM 35.7744 -115.1792 27° Northeast 235 270 7,400 -1,600 Descending Los Angeles Center
04:34PM 35.7869 -115.1714 17° North 234 269 7,100 -436 Descending Los Angeles Center
04:34PM 35.8283 -115.1556 23° Northeast 210 242 7,000 -100 Descending Los Angeles Center
04:35PM 35.8431 -115.1478 19° North 221 254 7,000  Level Los Angeles Center
04:35PM 35.8867 -115.1292 21° North 221 254 7,000 -100 Level Los Angeles Center
04:36PM 35.9033 -115.1214 10° North 216 249 6,900 -689 Descending Los Angeles Center
04:36PM 35.9553 -115.1106 North 250 288 6,300 -600 Descending Los Angeles Center
04:37PM 35.9700 -115.1078 North 216 249 6,300 -222 Level Los Angeles Center
04:37PM 36.0075 -115.1047 14° North 209 241 6,100 -300 Descending Los Angeles Center
04:38PM 36.0261 -115.0992 North 216 249 6,000 -207 Descending Los Angeles Center
04:39PM 36.0825 -115.0908 North 210 242 5,800 -706 Descending Los Angeles Center
04:39PM 36.1200 -115.0903 19° North 167 192 4,800 -900 Descending Los Angeles Center
04:40PM 36.1386 -115.0825 264° West 195 224 4,900 -1,377 Climbing Los Angeles Center
04:40PM 36.1350 -115.1236 270° West 142 163 3,400 -1,700 Descending Los Angeles Center
04:41PM 36.1350 -115.1314 213° Southwest 117 135 3,200 -818 Descending Los Angeles Center
04:41PM 36.1058 -115.1547 219° Southwest 124 143 2,500 -500 Descending Los Angeles Center
04:43PM 36.0853 -115.1756 90° East 82 94 2,200 3,435 Descending Los Angeles Center
04:44PM 36.0853 -115.1653 351° North 82 94 10,000  Climbing Los Angeles Center
04:45PM 36.1375 -115.1750 350° North 219 252 2,200  Descending Los Angeles Center
04:46PM 36.1958 -115.1872 350° North 219 252 10,000 7,800 Climbing Los Angeles Center